TimeCDT,TemperatureF,Dew PointF,Humidity,Sea Level PressureIn,VisibilityMPH,Wind Direction,Wind SpeedMPH,Gust SpeedMPH,PrecipitationIn,Events,Conditions,WindDirDegrees,DateUTC
1:50 AM,64.4,50.0,59,30.30,8.0,East,6.9,-,N/A,,Mostly Cloudy,80,2012-10-13 06:50:00
2:49 AM,62.6,50.0,63,30.29,8.0,Calm,Calm,-,N/A,,Mostly Cloudy,0,2012-10-13 07:49:00
4:45 AM,64.4,55.4,73,30.28,8.0,Calm,Calm,-,N/A,,Mostly Cloudy,0,2012-10-13 09:45:00
5:45 AM,62.6,50.0,63,30.28,8.0,NE,6.9,-,N/A,,Mostly Cloudy,50,2012-10-13 10:45:00
6:50 AM,62.6,50.0,63,29.89,8.0,NE,6.9,-,N/A,,Scattered Clouds,40,2012-10-13 11:50:00
8:51 AM,66.2,57.2,73,30.33,10.0,ENE,4.6,-,N/A,,Scattered Clouds,60,2012-10-13 13:51:00
9:40 AM,73.4,55.4,53,29.92,10.0,NE,4.6,-,N/A,,Scattered Clouds,50,2012-10-13 14:40:00
10:47 AM,75.2,64.4,69,30.36,10.0,South,8.1,-,N/A,,Scattered Clouds,170,2012-10-13 15:47:00
11:54 AM,80.6,53.6,39,30.33,10.0,SSE,6.9,-,N/A,,Scattered Clouds,150,2012-10-13 16:54:00
12:52 PM,84.2,53.6,35,29.81,10.0,NE,9.2,-,N/A,,Scattered Clouds,50,2012-10-13 17:52:00
1:49 PM,84.2,53.6,35,30.27,10.0,SE,6.9,-,N/A,,Scattered Clouds,140,2012-10-13 18:49:00
2:50 PM,89.6,53.6,29,30.24,10.0,SSE,4.6,-,N/A,,Scattered Clouds,150,2012-10-13 19:50:00
4:45 PM,82.4,51.8,35,30.18,20.0,ENE,9.2,-,N/A,,Scattered Clouds,60,2012-10-13 21:45:00
6:01 PM,78.8,53.6,42,30.18,10.0,Calm,Calm,-,N/A,,Scattered Clouds,0,2012-10-13 23:01:00
6:46 PM,78.8,53.6,42,29.74,10.0,Calm,Calm,-,N/A,,Scattered Clouds,0,2012-10-13 23:46:00
7:47 PM,75.2,50.0,41,30.18,8.0,Calm,Calm,-,N/A,,Scattered Clouds,0,2012-10-14 00:47:00
8:45 PM,71.6,53.6,53,30.21,8.0,ENE,5.8,-,N/A,,Scattered Clouds,60,2012-10-14 01:45:00
9:42 PM,69.8,50.0,49,29.85,8.0,NE,9.2,-,N/A,,Scattered Clouds,50,2012-10-14 02:42:00
10:40 PM,69.8,50.0,49,30.24,8.0,NE,9.2,-,N/A,,Partly Cloudy,50,2012-10-14 03:40:00
11:41 PM,66.2,48.2,52,30.26,8.0,South,6.9,-,N/A,,Partly Cloudy,170,2012-10-14 04:41:00